Location: Fort Wayne
(41.1310°N, 85.1290°W)
Time: 19:25:44
(UTC-05:00)

ISS - Visible Passes

Search period start: 20 January 2018 00:00
Search period end: 30 January 2018 00:00
Orbit: 402 x 407 km, 51.6° (Epoch: 21 January)

Date Brightness Start Highest point End Pass type
(mag) Time Alt. Az. Time Alt. Az. Time Alt. Az.
23 Jan -1.1 20:03:10 10° SW 20:03:52 15° SSW 20:03:52 15° SSW visible
24 Jan -2.6 19:11:22 10° SSW 19:14:09 26° SE 19:14:10 26° SE visible
25 Jan -1.7 18:20:14 10° SSE 18:22:01 14° SE 18:23:48 10° E visible
25 Jan -2.3 19:54:54 10° WSW 19:57:01 36° WSW 19:57:01 36° WSW visible
26 Jan -3.8 19:02:34 10° SW 19:05:47 66° SE 19:07:07 32° ENE visible
27 Jan -2.3 19:47:01 10° W 19:49:48 31° NW 19:49:48 31° NW visible
28 Jan -3.3 18:54:21 10° WSW 18:57:32 52° NNW 18:59:44 18° NE visible
29 Jan -1.8 19:39:26 10° WNW 19:41:57 20° NNW 19:42:15 20° N visible
